TimeCST,TemperatureF,Dew PointF,Humidity,Sea Level PressureIn,VisibilityMPH,Wind Direction,Wind SpeedMPH,Gust SpeedMPH,PrecipitationIn,Events,Conditions,WindDirDegrees,DateUTC
12:53 AM,39.0,30.0,70,30.31,10.0,Calm,Calm,-,N/A,,Clear,0,2013-03-07 06:53:00
1:53 AM,36.0,30.0,79,30.31,10.0,Calm,Calm,-,N/A,,Clear,0,2013-03-07 07:53:00
2:53 AM,36.0,30.0,79,30.30,10.0,Calm,Calm,-,N/A,,Clear,0,2013-03-07 08:53:00
3:53 AM,33.1,30.0,89,30.29,10.0,Calm,Calm,-,N/A,,Clear,0,2013-03-07 09:53:00
4:53 AM,34.0,30.0,85,30.31,10.0,Calm,Calm,-,N/A,,Clear,0,2013-03-07 10:53:00
5:53 AM,35.1,30.9,85,30.34,10.0,Calm,Calm,-,N/A,,Clear,0,2013-03-07 11:53:00
6:53 AM,36.0,30.9,82,30.36,10.0,East,3.5,-,N/A,,Clear,80,2013-03-07 12:53:00
7:53 AM,37.9,32.0,79,30.39,10.0,Calm,Calm,-,N/A,,Clear,0,2013-03-07 13:53:00
8:53 AM,43.0,30.9,62,30.39,10.0,East,8.1,-,N/A,,Clear,100,2013-03-07 14:53:00
9:53 AM,46.9,28.9,50,30.39,10.0,SSE,4.6,-,N/A,,Clear,150,2013-03-07 15:53:00
10:53 AM,50.0,28.9,44,30.38,10.0,ENE,6.9,-,0.00,,Clear,70,2013-03-07 16:53:00
11:53 AM,54.0,28.9,38,30.35,10.0,NE,4.6,-,0.00,,Clear,40,2013-03-07 17:53:00
12:53 PM,55.0,28.9,37,30.32,10.0,Variable,4.6,-,N/A,,Clear,0,2013-03-07 18:53:00
1:53 PM,57.0,28.9,34,30.30,10.0,Variable,4.6,-,N/A,,Clear,0,2013-03-07 19:53:00
2:53 PM,59.0,30.0,33,30.28,10.0,East,8.1,-,N/A,,Clear,80,2013-03-07 20:53:00
3:53 PM,59.0,30.0,33,30.27,10.0,NE,9.2,-,N/A,,Clear,50,2013-03-07 21:53:00
4:53 PM,57.0,30.0,36,30.26,10.0,East,8.1,-,N/A,,Clear,80,2013-03-07 22:53:00
5:53 PM,54.0,32.0,43,30.26,10.0,East,5.8,-,N/A,,Clear,80,2013-03-07 23:53:00
6:53 PM,50.0,33.1,52,30.27,10.0,East,3.5,-,N/A,,Clear,100,2013-03-08 00:53:00
7:53 PM,46.9,33.1,59,30.27,10.0,ESE,3.5,-,0.00,,Clear,110,2013-03-08 01:53:00
8:53 PM,46.9,33.1,59,30.27,10.0,East,3.5,-,0.00,,Clear,100,2013-03-08 02:53:00
9:53 PM,45.0,33.1,63,30.27,10.0,East,3.5,-,N/A,,Clear,100,2013-03-08 03:53:00
10:53 PM,41.0,33.1,73,30.27,10.0,ESE,3.5,-,N/A,,Clear,110,2013-03-08 04:53:00
11:53 PM,39.9,33.1,77,30.27,10.0,East,3.5,-,N/A,,Clear,100,2013-03-08 05:53:00